Location: Palomar Mountain Lodge
(33.3110°N, 116.8495°W)
Time: 21:48:39
(UTC-08:00)

SL-8 Rocket - Pass Details

Date: 12 July 2018
Orbit: 958 x 990 km, 82.9° (Epoch: 19 November)

Event Time Altitude Azimuth Distance (km) Brightness Sun altitude
Rises 23:22:14 0° 347° (NNW) 3,704 8.1 -30.8°
Reaches altitude 10° 23:24:49 10° 343° (NNW) 2,752 7.2 -31.0°
Maximum altitude 23:30:54 51° 269° (W) 1,220 4.5 -31.5°
Enters shadow 23:31:07 51° 262° (W) 1,223 4.5 -31.5°
